Location: Miles
(41.4492°N, 81.6087°W)
Time: 22:08:33
(UTC+00:00)

Explorer 11/Cluster Stage 4 - Pass Details

Date: 16 September 2024
Orbit: 464 x 1208 km, 28.8° (Epoch: 06 October)

Event Time Altitude Azimuth Distance (km) Brightness Sun altitude
Rises 10:06:57 0° 201° (SSW) 3,309 9.4 -12.2°
Reaches altitude 10° 10:11:19 10° 170° (S) 2,582 9.2 -11.4°
Maximum altitude 10:13:19 12° 151° (SSE) 2,554 9.4 -11.0°
Drops below altitude 10° 10:15:25 10° 132° (SE) 2,755 9.9 -10.6°
Sets 10:20:33 0° 103° (ESE) 3,892 11.5 -9.7°
